YAOGAN-22 (40275 NORAD) Tracking and Keplerian Element Data

This shows tracking and keplerian element data for the satellite.

Feedback or suggestion? Click here.




ElementValue
Catalog40275
NameYAOGAN-22
Epoch Orbit49422
Epoch Day34.36185403
Epoch Year2025
RAAN174.0858
Inclination100.6917
Eccentricity0.0006072
Argument of Perigee230.0801
Mean Anonmoly129.9777
Mean Motion13.1550227
Decay Rate-7E-08
L11 40275U 14063A 25034.36185403 -.00000007 00000+0 10310-3 0 9991
L22 40275 100.6917 174.0858 0006072 230.0801 129.9777 13.15502270494225



Live tracking and technical data element details for YAOGAN-22 (NORAD 40275). YAOGAN-22 can be tracked NOW for your location showing map with azimuth and elevation plus other details from your city location.







IsCatalogInMostPopularTable: catalog: 40275, numindb: 384
Update: records affected: 1



GetName: 40275 YAOGAN-22

Hit Count: updated at: Thu, 22 May 2025 03:06:45 GMT